Flag for Germany Weather past 2 weeks in Bremerhaven, Bremen, Germany

Now
43 °F

Partly sunny.


Feels Like: 37 °F
Forecast: 40 / 52 °F
Wind: 9 mph from North

Location: Nordholz

Current Time: Apr 27, 2015 at 9:08:16 PM

Latest Report: Apr 27, 2015 at 8:20 PM


Visibility: N/A

Pressure: 29.83 "Hg

Humidity: 61%

Dew point: 30 °F

Location of BremerhavenLocation

Historic Weather in Bremerhaven — Graph

°F

Bremerhaven temperature yesterday

Maximum temperature yesterday: 52 °F (at 12:20 AM)
Minimum temperature yesterday: 45 °F (at 1:20 PM)
Average temperature yesterday: 47 °F

Past Weeks' High & Low Weather Summary

 TemperatureHumidityPressure
High64 °F (Apr 24, 6:20 PM)100% (Apr 20, 6:20 AM)30.45 "Hg (Apr 20, 6:20 AM)
Low37 °F (Apr 14, 2:20 AM)44% (Apr 18, 12:20 PM)29.68 "Hg (Apr 25, 5:20 AM)
Average48 °F78%30.09 "Hg
* Reported Apr 12 7:20 PM — Apr 27 7:20 PM, Bremerhaven, Weather by CustomWeather, © 2015

Note: Actual official high and low records may vary slightly from our data, if they occured in-between our weather recording intervals... More about our weather records

Advertising

Bremerhaven weather history for previous 24 hours

 ConditionsComfort  
Time TempWeatherWind HumidityBarometerVisibility
7:20 PM
Mon, Apr 27
45 °FPartly sunny.12 mph53%29.80 "HgN/A
6:20 PM45 °FPartly sunny.15 mph57%29.80 "HgN/A
5:20 PM46 °FPartly sunny.14 mph62%29.80 "HgN/A
4:20 PM48 °FPartly sunny.16 mph62%29.80 "HgN/A
3:20 PM48 °FBroken clouds.15 mph66%29.80 "HgN/A
2:20 PM50 °FBroken clouds.14 mph54%29.77 "HgN/A
1:20 PM48 °FPartly sunny.13 mph58%29.77 "HgN/A
12:20 PM48 °FPartly sunny.12 mph54%29.77 "HgN/A
11:20 AM48 °FBroken clouds.12 mph62%29.77 "HgN/A
10:20 AM48 °FPartly sunny.10 mph62%29.74 "HgN/A
9:20 AM46 °FPartly sunny.12 mph71%29.74 "HgN/A
8:20 AM46 °FPartly sunny.10 mph76%29.74 "HgN/A
7:20 AM45 °FPartly sunny.8 mph76%29.71 "HgN/A
6:20 AM43 °FPassing clouds.7 mph81%29.71 "HgN/A
5:20 AM43 °FPassing clouds.9 mph81%29.71 "HgN/A
4:20 AM43 °FPassing clouds.9 mph81%29.71 "HgN/A
3:20 AM45 °FPassing clouds.8 mph76%29.71 "HgN/A
2:20 AM45 °FPassing clouds.5 mph81%29.71 "HgN/A
1:20 AM41 °FPartly cloudy.2 mph93%29.74 "HgN/A
12:20 AM43 °FPartly cloudy.2 mph87%29.74 "HgN/A
11:20 PM
Sun, Apr 26
45 °FPassing clouds.5 mph87%29.74 "HgN/A
10:20 PM45 °FPassing clouds.3 mph87%29.74 "HgN/A
9:20 PM45 °FPartly sunny.3 mph87%29.74 "HgN/A
Weather by CustomWeather, © 2015

See weather overviewHow to use our weather pages